Location: *
(44.9308°N, 123.0197°W)
Time: 22:23:12
(UTC+00:00)

PSLV R/B - Pass Details

Date: 09 April 2020
Orbit: 594 x 630 km, 97.9° (Epoch: 02 June)

Event Time Altitude Azimuth Distance (km) Brightness Sun altitude
Rises 12:11:21 0° 12° (NNE) 2,924 7.6 -15.1°
Reaches altitude 10° 12:13:33 10° 12° (NNE) 2,015 6.7 -14.7°
Maximum altitude 12:17:57 87° 286° (WNW) 637 3.5 -14.0°
Drops below altitude 10° 12:22:19 10° 196° (SSW) 2,003 5.8 -13.3°
Enters shadow 12:22:38 - 196° (SSW) 2,128 5.9 -13.3°
